Regional Weather Roundup
Issued by NWS

Home | Current Version | Previous Version | Graphics & Text | Print | Product List | Glossary Off
Versions: 1 2 3 4 5 6 7 8 9 10 11 12 13 14 15 16 17 18 19 20 21 22 23 24 25 26 27 28 29 30 31 32 33 34 35 36 37 38 39 40 41 42 43 44 45 46 47 48 49 50

000
ASUS43 KTOP 170208
RWRKS

WEATHER ROUNDUP FOR KANSAS
NATIONAL WEATHER SERVICE GOODLAND KS
800 PM CST SAT DEC 16 2017

NOTE:  "FAIR" INDICATES FEW OR NO CLOUDS BELOW 12,000 FEET WITH NO
SIGNIFICANT WEATHER AND/OR OBSTRUCTIONS TO VISIBILITY.

KSZ001>006-013>018-027>032-041>047-170300-
NORTHWEST KANSAS

CITY           SKY/WX    TMP DP  RH WIND       PRES   REMARKS
GOODLAND       CLOUDY    32  23  69 N10       29.85R WCI  24
HAYS           CLOUDY    39  21  48 E7        29.81S
HILL CITY      CLOUDY    37  21  52 NE9       29.85R
RUSSELL        CLOUDY    44  24  45 SE13      29.81R
$$

KSZ061>065-074>080-084>089-170300-
SOUTHWEST KANSAS

CITY           SKY/WX    TMP DP  RH WIND       PRES   REMARKS
DODGE CITY     PTCLDY    50  26  39 S18G26    29.80R
ELKHART        CLOUDY    36  21  55 S10       29.74R WCI  28
GARDEN CITY    CLEAR     43  17  35 S10       29.77R
GREAT BEND     CLOUDY    48  25  40 S12       29.84R
LIBERAL        PTCLDY    50  24  36 S10       29.77R
PRATT          CLOUDY    51  24  34 S20G25    29.83R
$$

KSZ066>073-081>083-090>101-170300-
SOUTHEAST KANSAS

CITY           SKY/WX    TMP DP  RH WIND       PRES   REMARKS
CHANUTE        MOCLDY    50  28  42 S9        29.95S
COFFEYVILLE    CLOUDY    53  28  38 S10       29.97R
HUTCHINSON     CLOUDY    51  28  41 S13       29.87R
MEDICINE LODGE   N/A     51  28  41 SE8       29.85R
NEWTON         MOCLDY    52  26  36 S16       29.89R
PARSONS        CLOUDY    53  27  36 S10       29.96R
WICHITA INTL   MOCLDY    51  27  39 S7        29.89R
WICHITA JABRA  CLOUDY    51  27  39 S9        29.88S
WICHITA MCCONL CLOUDY    52  25  35 S9        29.89R
WINFIELD       CLOUDY    54  27  35 S18G25    29.92R
$$

KSZ007>012-019>026-033>040-048>060-102>105-170300-
NORTHEAST KANSAS

CITY           SKY/WX    TMP DP  RH WIND       PRES   REMARKS
CONCORDIA      CLOUDY    38  24  57 E3        29.87R
EMPORIA        CLOUDY    46  24  42 SE5       29.91R
LAWRENCE       PTCLDY    42  26  53 SE6       29.94S
MANHATTAN      CLOUDY    46  25  43 S6        29.90R
MARYSVILLE     CLOUDY    41  27  56 CALM      29.90S
OLATHE IND     CLOUDY    46  27  47 SE7       29.96S
OLATHE EXE     CLOUDY    44  27  51 S5        29.95S
SALINA         CLOUDY    48  26  42 S10       29.88R
TOPEKA BILLARD CLOUDY    45  26  47 CALM      29.92S
TOPEKA FORBES  PTCLDY    44  25  47 SE7       29.92R
$$




USA.gov is the U.S. government's official web portal to all federal, state and local government web resources and services.